Regional Weather Roundup
Issued by NWS

Home | Current Version | Previous Version | Text Only | Print | Product List | Glossary Off
Versions: 1 2 3 4 5 6 7 8 9 10 11 12 13 14 15 16 17 18 19 20 21 22 23 24 25 26 27 28 29 30 31 32 33 34 35 36 37 38 39 40 41 42 43 44 45 46 47 48 49 50

000
ASUS44 KFWD 180215
RWRTX
NORTH TEXAS HOURLY WEATHER ROUNDUP
NATIONAL WEATHER SERVICE FORT WORTH TX
900 PM CDT WED SEP 17 2014

NOTE: "FAIR" INDICATES FEW OR NO CLOUDS BELOW 12,000 FEET WITH NO
SIGNIFICANT WEATHER AND/OR OBSTRUCTIONS TO VISIBILITY.

TXZ118-119-180300-
DALLAS/FORT WORTH METROPLEX

CITY           SKY/WX    TMP DP  RH WIND       PRES   REMARKS
DFW AIRPORT    LGT RAIN  79  71  76 SE7       29.88S
DALLAS LOVE    CLOUDY    83  70  64 S6        29.89R
FTW MEACHAM    CLOUDY    82  70  66 S7        29.88R
DAL-EXECUTIVE  CLOUDY    78  74  87 CALM      29.89S
FTW-ALLIANCE   LGT RAIN  78  73  84 E3        29.88S
FTW-NAS-JRB    CLOUDY    84  69  60 S6        29.93R
FTW-SPINKS     CLOUDY    78  73  85 CALM      29.91S
ARLINGTON      CLOUDY    82  70  66 E5        29.89S
GRAND PRAIRIE  CLOUDY    81  70  69 CALM      29.90S
LANCASTER      CLOUDY    77  73  85 CALM      29.90R
$$

TXZ091>094-102>105-117-120-121-131>134-180300-
NORTH CENTRAL TEXAS

CITY           SKY/WX    TMP DP  RH WIND       PRES   REMARKS
SHRMAN/DENISON CLOUDY    81  69  67 S6        29.90R
GAINESVILLE    CLOUDY    79  69  71 S3        29.90F
BOWIE          CLOUDY    77  68  74 S3        29.89F
BRIDGEPORT     CLOUDY    75  75 100 CALM      29.92S
DECATUR        CLOUDY    80  67  64 SW6       29.91S
DENTON         CLOUDY    81  69  67 S7        29.89R
MCKINNEY       CLOUDY    80  71  74 S5        29.89R
GREENVILLE     CLOUDY    81  70  69 SE5       29.90R
ROCKWALL       CLOUDY    80  72  78 CALM      29.89R
TERRELL        CLOUDY    83  72  69 SE3       29.90R
WAXAHACHIE     CLOUDY    77  73  85 CALM      29.91S
CLEBURNE       LGT RAIN  79  75  89 CALM      29.93R
GRANBURY       LGT RAIN  76  72  89 NW3       29.92S
$$

TXZ083>090-098>101-113>116-127>130-139>142-154-155-180300-
WESTERN NORTH TEXAS

CITY           SKY/WX    TMP DP  RH WIND       PRES   REMARKS
WICHITA FALLS  CLOUDY    77  71  82 SE7       29.88R
WF-KICKAPOO    CLOUDY    77  70  79 SE6       29.90S
VERNON         CLOUDY    83  67  58 SW5       29.90R
ABILENE        CLOUDY    75  69  81 E7        29.95R
ABILENE-DYESS  CLOUDY    76  68  76 SE5       29.94R
BRECKENRIDGE   CLOUDY    75  74  95 SE3       29.93R FOG
GRAHAM         CLOUDY    75  69  83 CALM      29.90R
MINERAL WELLS  CLOUDY    76  73  91 SE8       29.90R
STEPHENVILLE   CLOUDY    73  69  88 CALM      29.96R
COMANCHE       CLOUDY    72  71  96 SE3       29.94S
BROWNWOOD      CLOUDY    73  70  88 E7        29.93R
COLEMAN        CLOUDY    74  70  89 E6        29.95R
BRADY          PTCLDY    75  72  88 NE8       29.93R
$$

TXZ143>147-156>162-174-175-180300-
CENTRAL TEXAS

CITY           SKY/WX    TMP DP  RH WIND       PRES   REMARKS
WACO           CLOUDY    78  71  79 S15       29.90R
WACO-TSTC      LGT RAIN  81  72  74 S10       29.90R
WACO-MCGREGOR  CLOUDY    73  66  78 S14G20    29.92R
HILLSBORO      DRIZZLE   80  66  62 E10       29.90S
CORSICANA      LGT RAIN  82  72  71 E6        29.90R
MEXIA          DRIZZLE   79  71  76 SE10G21   29.90R
HEARNE         CLOUDY    77  74  91 E6        29.91R
CAMERON        CLOUDY    80  74  82 SE8       29.89R
TEMPLE         CLOUDY    73  68  83 N16G29    29.90R THUNDER
KILLEEN        MOCLDY    81  72  74 CALM      29.90R THUNDER
KILLEEN-SKYLRK CLOUDY    82  70  65 NE13G18   29.90R
FORT HOOD      CLOUDY    82  73  74 NE13G20   29.90R
GATESVILLE     TSTM      75  73  94 NW3       29.95R
HAMILTON       CLOUDY    74  74  99 SE7G17    29.95R
LAMPASAS       CLOUDY    81  71  71 CALM      29.90R THUNDER
$$

TXZ095>097-106>112-122>126-135>138-148>153-164>167-180300-
EAST TEXAS

CITY           SKY/WX    TMP DP  RH WIND       PRES   REMARKS
PARIS          MOCLDY    81  68  65 SE9       29.90S
SULPHUR SPRNGS CLOUDY    83  70  65 SE6       29.92R
MOUNT PLEASANT PTCLDY    78  64  62 SW9       29.93R
GILMER         MOCLDY    77  77 100 CALM      29.94R FOG
MINEOLA        MOCLDY    81  72  74 CALM      29.92R
TYLER          MOCLDY    79  72  79 SE5       29.90S
LONGVIEW       MOCLDY    78  72  81 CALM      29.91R
MARSHALL       MOCLDY    82  73  72 CALM      29.93R
ATHENS         CLOUDY    79  72  78 CALM      29.89S
PALESTINE      CLOUDY    78  73  82 S5        29.92S
JACKSONVILLE   MOCLDY    79  73  80 S12       29.96R
HENDERSON      PTCLDY    76  74  93 CALM      29.92S
NACOGDOCHES    MOCLDY    75  72  88 S8        29.93R
LUFKIN         MOCLDY    77  72  84 CALM      29.92R
$$

SUPPLEMENTAL OBSERVATIONS (CENTRAL)

CITY           SKY/WX    TMP DP  RH WIND       PRES   REMARKS
LAKE TEXOMA      N/A     82  70  65 SE3         N/A
PAT MAYSE LAKE   N/A     81  73  78 E5          N/A
ATHENS           N/A     82  72  69 SE5         N/A
PALESTINE        N/A     79  72  78 S7          N/A
LAKE LIMESTONE   N/A     75  68  78 SE6         N/A
MCGREGOR         N/A     73  70  88 SE12G26     N/A
TEMPLE           N/A     77  72  83 NE15G22     N/A
$$

SUPPLEMENTAL OBSERVATIONS (WEST)

CITY           SKY/WX    TMP DP  RH WIND       PRES   REMARKS
POSSUM KINGDOM   N/A     73  70  88 S5          N/A
GRANBURY         N/A     73  70  88 NW3         N/A
COMANCHE         N/A     72  66  83 SE3         N/A
HAMBY            N/A     73  68  83 SE7         N/A
IVIE RESERVOIR   N/A     79  68  69 E10         N/A
COLORADO BEND    N/A     79  68  69 N5          N/A
$$

SUPPLEMENTAL OBSERVATIONS (EAST)

CITY           SKY/WX    TMP DP  RH WIND       PRES   REMARKS
CLARKSVILLE      N/A     79  73  83 SE5         N/A
TEXARKANA        N/A     79  73  83 CALM        N/A
LINDEN           N/A     79  73  83 CALM        N/A
CADDO LAKE       N/A     75  72  88 SE1         N/A
GILMER           N/A     75  72  88 N2          N/A
HENDERSON        N/A     79  72  78 SE2         N/A
N SABINE NF      N/A     77  70  78 MISG        N/A
S SABINE NF      N/A     75  72  88 W1          N/A
$$

SUPPLEMENTAL OBSERVATIONS ARE A COLLECTION OF AUTOMATED INSTRUMENTS
THAT ARE MAINTAINED BY A VARIETY OF FEDERAL AND STATE AGENCIES.
CERTAIN ELEMENTS...SUCH AS HUMIDITY VALUES AND SUSTAINED WIND
SPEEDS...MAY BE APPROXIMATED.



USA.gov is the U.S. government's official web portal to all federal, state and local government web resources and services.